Regional Weather Roundup
Issued by NWS Sterling, VA

Home | Current Version | Previous Version | Text Only | Print | Product List | Glossary On
Versions: 1 2 3 4 5 6 7 8 9 10 11 12 13 14 15 16 17 18 19 20 21 22 23 24 25 26 27 28 29 30 31 32 33 34 35 36 37 38 39 40 41 42 43 44 45 46 47 48 49 50
000
ASUS41 KLWX 032110
RWRLWX

REGIONAL WEATHER ROUNDUP
NATIONAL WEATHER SERVICE BALTIMORE MD/WASHINGTON DC
500 PM EDT MON AUG 03 2015

Note: "FAIR" indicates few or no clouds below 12,000 feet
with no significant weather and/or obstructions to visibility.
 TC=TEMPERATURE CELSIUS

 * =Non NWS site. Station does not report precipitation (e.g. rain,
    snow, etc.), thunder, or fog.

DCZ001-MDZ009-015-VAZ040>042-051-053>054-032200-
WASHINGTON METRO

CITY           SKY/WX    TMP DP  RH WIND       PRES   REMARKS
WASHINGTON NAT PTSUNNY   91  67  44 S14       29.82F HX  94
DULLES         PTSUNNY   87  61  41 SW13G20   29.83S
ANDREWS AFB    MOSUNNY   89  63  40 SW14      29.83S HX  90
FT BELVOIR     MOSUNNY   89  65  45 SE6       29.82S HX  91
QUANTICO       PTSUNNY   93  61  34 S10       29.80S HX  93
COLLEGE PARK*  MOSUNNY   90  57  33 SW7       29.81S
LEESBURG*      MOSUNNY   91  66  43 SW12G24   29.83F HX  94
MANASSAS*      SUNNY     90  63  40 S12       29.83F HX  90
GAITHERSBURG*  MOSUNNY   90  61  37 S7        29.86F

$$

MDZ006>007-011-014-032200-
BALTIMORE METRO

CITY           SKY/WX    TMP DP  RH WIND       PRES   REMARKS
BWI AIRPORT    PTSUNNY   90  57  32 SW8       29.81S
MD SCIENCE CTR   N/A     92  54  27 MISG      29.81S HX  90
MARTIN STATE   PTSUNNY   90  70  51 SE16      29.82F HX  95
ANNAPOLIS      MOSUNNY   88  62  41 S10       29.81F
FORT MEADE*    MOSUNNY   84  63  48 SW8       29.84S

$$

MDZ012-015-019>023-032200-
MARYLAND EASTERN SHORE

CITY           SKY/WX    TMP DP  RH WIND       PRES   REMARKS
OCEAN CITY     SUNNY     85  74  69 SW14G21   29.86S HX  92
SALISBURY      SUNNY     87  68  52 SW10      29.85F HX  90
BAY BRIDGE AP*   N/A     88  63  42 S12       29.82F
CAMBRIDGE*     MOSUNNY   88  68  51 S9G20     29.83F HX  91
EASTON*        MOSUNNY   91  68  46 SW13      29.87S HX  95

$$

MDZ017>025-032200-
SOUTHERN MARYLAND

CITY           SKY/WX    TMP DP  RH WIND       PRES   REMARKS
PATUXENT RIVER PTSUNNY   88  68  51 S13       29.83F HX  91
ST INIGOES     SUNNY     88  71  57 S8        29.83F HX  94
LEONARDTOWN*   SUNNY     88  66  48 S7        29.85F HX  90

$$

MDZ003>005-032200-
NORTH CENTRAL MARYLAND

CITY           SKY/WX    TMP DP  RH WIND       PRES   REMARKS
FREDERICK*     SUNNY     90  64  43 SW13      29.83F HX  91
HAGERSTOWN APT PTSUNNY   93  53  25 W13G18    29.80F HX  90
WESTMINSTER*   MOSUNNY   90  57  33 SW10      29.83F

$$

MDZ501>502-032200-
WESTERN MARYLAND

CITY           SKY/WX    TMP DP  RH WIND       PRES   REMARKS
OAKLAND*       PTSUNNY   72  72 100 W7        29.95S
CUMBERLAND*    MOSUNNY   86  55  35 W9G18     29.87S

$$

VAZ025>031-032200-
SHENANDOAH VALLEY

CITY           SKY/WX    TMP DP  RH WIND       PRES   REMARKS
WINCHESTER*    PTSUNNY   91  61  35 S13       29.82F HX  91
FRONT ROYAL*   FAIR      88  63  42 S9        29.83S
LURAY*         FAIR      91  61  35 S12G18    29.85S HX  91
NEW MARKET*    FAIR      86  64  47 S12       29.83S
STAUNTON*      SUNNY     91  58  33 SW12      29.90S HX  90
WAYNESBORO*    FAIR      86  61  42 SW10G17   29.91S

$$

WVZ021-048>050-054>055-032200-
EASTERN WEST VIRGINIA PANHANDLE

CITY           SKY/WX    TMP DP  RH WIND       PRES   REMARKS
MARTINSBURG    PTSUNNY   90  59  35 SW8G17    29.81F
PETERSBURG*    MOSUNNY   89  56  33 W9        29.85S

$$

VAZ036>039-050-032200-
CENTRAL FOOTHILLS

CITY           SKY/WX    TMP DP  RH WIND       PRES   REMARKS
CHARLOTTESVILL SUNNY     89  60  37 SW6       29.85F
CULPEPER*      SUNNY     88  65  45 SW9       29.84S
ORANGE*        SUNNY     90  61  37 S9        29.86S
GORDONSVILLE*  FAIR      90  63  40 SW9       29.84S HX  90
WARRENTON*     FAIR      90  67  47 S9        29.83S HX  93

$$

VAZ055>057-032200-
NORTH AND CENTRAL PIEDMONT

CITY           SKY/WX    TMP DP  RH WIND       PRES   REMARKS
FREDERICKSBRG* SUNNY     94  63  36 SW8       29.83S HX  95
STAFFORD*      SUNNY     91  58  33 S9        29.87F

$$

NCZ024-NYZ072-PAZ021-071-VAZ022-071-032200-
OTHER REGIONAL OBSERVATIONS

CITY           SKY/WX    TMP DP  RH WIND       PRES   REMARKS
NEW YORK CITY  MOSUNNY   87  61  41 VRB7      29.80F
PHILADELPHIA   PTSUNNY   91  58  32 SW13      29.80S HX  90
PITTSBURGH     PTSUNNY   74  67  78 SW6       29.83S THUNDER
ROANOKE        MOSUNNY   91  55  29 W9        29.92F
RICHMOND       PTSUNNY   92  68  45 S16       29.86S HX  96
RALEIGH        MOSUNNY   94  66  39 S9        29.89F HX  97

$$

ANZ530>537-032200-
MARINE OBSERVATIONS

STATION/POSITION TIME  TEMP    WIND        PRES
                       AIR SEA DIR/SP/G
                 (UTC) (F)     (DEG/KT/KT) (MB)
THOMAS PT LIGHT  2100   84     190/ 13     1010.3
BALT KEY BRIDGE  2000   87     180/ 12/ 14 1009.1F
COVE POINT       2000   82     180/ 14/ 15 1011.3F
LEWISETTA        2000   87 86  220/  7/  9 1010.5F
SOLOMONS ISLAND  2000      83                N/A
PINEY POINT      2000          210/ 10/ 13   N/A

$$




USA.gov is the U.S. government's official web portal to all federal, state and local government web resources and services.